EN

Hourly Weather Buritama

Today, 10 May, Monday

Time Temperature Precipitation Wind Pressure Humidity
00:00 +20°C° 0 mm 3 mps 729 mmHg 62%
01:00 +20°C° 0 mm 4 mps 729 mmHg 67%
02:00 +19°C° 0 mm 4 mps 729 mmHg 71%
03:00 +18°C° 0 mm 4 mps 729 mmHg 76%
04:00 +18°C° 0 mm 4 mps 729 mmHg 80%
05:00 +17°C° 0 mm 4 mps 729 mmHg 84%
06:00 +15°C° 0 mm 4 mps 729 mmHg 88%
07:00 +18°C° 0 mm 4 mps 730 mmHg 77%
08:00 +21°C° 0 mm 4 mps 730 mmHg 65%
09:00 +23°C° 0 mm 4 mps 731 mmHg 54%
10:00 +27°C° 0 mm 4 mps 731 mmHg 45%
11:00 +30°C° 0 mm 3 mps 730 mmHg 37%
12:00 +34°C° 0 mm 2 mps 730 mmHg 29%
13:00 +35°C° 0 mm 2 mps 729 mmHg 27%
14:00 +35°C° 0 mm 2 mps 728 mmHg 25%
15:00 +36°C° 0 mm 2 mps 727 mmHg 23%
16:00 +34°C° 0 mm 2 mps 727 mmHg 26%
17:00 +31°C° 0 mm 2 mps 727 mmHg 29%
18:00 +28°C° 0 mm 2 mps 726 mmHg 32%
19:00 +28°C° 0 mm 2 mps 727 mmHg 34%
20:00 +27°C° 0 mm 2 mps 727 mmHg 36%
21:00 +26°C° 0 mm 2 mps 728 mmHg 38%
22:00 +25°C° 0 mm 2 mps 728 mmHg 41%
23:00 +24°C° 0 mm 2 mps 728 mmHg 44%

Tomorrow, 11 May, Tuesday

Time Temperature Precipitation Wind Pressure Humidity
00:00 +22°C° 0 mm 3 mps 727 mmHg 47%
01:00 +21°C° 0 mm 3 mps 727 mmHg 52%
02:00 +20°C° 0 mm 3 mps 727 mmHg 57%
03:00 +19°C° 0 mm 3 mps 727 mmHg 61%
04:00 +18°C° 0 mm 3 mps 727 mmHg 65%
05:00 +18°C° 0 mm 3 mps 727 mmHg 68%
06:00 +17°C° 0 mm 3 mps 727 mmHg 71%
07:00 +20°C° 0 mm 3 mps 728 mmHg 61%
08:00 +24°C° 0 mm 3 mps 728 mmHg 52%
09:00 +26°C° 0 mm 3 mps 729 mmHg 42%
10:00 +29°C° 0 mm 3 mps 728 mmHg 37%
11:00 +31°C° 0 mm 2 mps 728 mmHg 31%
12:00 +35°C° 0 mm 2 mps 728 mmHg 25%
13:00 +35°C° 0 mm 2 mps 727 mmHg 24%
14:00 +36°C° 0 mm 2 mps 726 mmHg 22%
15:00 +36°C° 0 mm 3 mps 725 mmHg 20%
16:00 +34°C° 0 mm 2 mps 725 mmHg 23%
17:00 +31°C° 0 mm 2 mps 725 mmHg 26%
18:00 +28°C° 0 mm 2 mps 725 mmHg 29%
19:00 +27°C° 0 mm 1 mps 725 mmHg 32%
20:00 +26°C° 0 mm 1 mps 725 mmHg 34%
21:00 +25°C° 0 mm 1 mps 726 mmHg 36%
22:00 +24°C° 0 mm 1 mps 726 mmHg 38%
23:00 +24°C° 0 mm 1 mps 725 mmHg 40%

Day after tomorrow, 12 May, Wednesday

Time Temperature Precipitation Wind Pressure Humidity
00:00 +23°C° 0 mm 1 mps 725 mmHg 41%
01:00 +23°C° 0 mm 1 mps 725 mmHg 43%
02:00 +21°C° 0 mm 2 mps 724 mmHg 44%
03:00 +20°C° 0 mm 2 mps 724 mmHg 46%
04:00 +20°C° 0 mm 2 mps 724 mmHg 47%
05:00 +21°C° 0 mm 1 mps 725 mmHg 47%
06:00 +21°C° 0 mm 1 mps 725 mmHg 48%
07:00 +23°C° 0 mm 1 mps 726 mmHg 43%
08:00 +25°C° 0 mm 2 mps 727 mmHg 39%
09:00 +27°C° 0 mm 2 mps 727 mmHg 34%
10:00 +29°C° 0 mm 3 mps 727 mmHg 31%
11:00 +32°C° 0 mm 4 mps 727 mmHg 27%
12:00 +35°C° 0 mm 4 mps 727 mmHg 24%
13:00 +35°C° 0 mm 5 mps 726 mmHg 24%
14:00 +35°C° 0 mm 6 mps 725 mmHg 23%
15:00 +35°C° 0 mm 6 mps 725 mmHg 23%
16:00 +33°C° 0 mm 7 mps 725 mmHg 28%
17:00 +30°C° 0 mm 7 mps 726 mmHg 33%
18:00 +28°C° 0 mm 7 mps 726 mmHg 37%
19:00 +26°C° 0 mm 7 mps 727 mmHg 45%
20:00 +24°C° 0 mm 6 mps 727 mmHg 53%
21:00 +22°C° 0 mm 6 mps 728 mmHg 61%
22:00 +21°C° 0 mm 5 mps 728 mmHg 68%
23:00 +19°C° 0 mm 4 mps 727 mmHg 75%

13 May, Thursday

Time Temperature Precipitation Wind Pressure Humidity
00:00 +18°C° 0 mm 3 mps 727 mmHg 82%
01:00 +18°C° 0 mm 3 mps 727 mmHg 85%
02:00 +17°C° 0 mm 3 mps 727 mmHg 88%
03:00 +16°C° 0 mm 3 mps 727 mmHg 91%
04:00 +16°C° 0 mm 3 mps 728 mmHg 92%
05:00 +16°C° 0 mm 3 mps 728 mmHg 93%
06:00 +14°C° 0 mm 3 mps 728 mmHg 94%
07:00 +17°C° 0 mm 3 mps 729 mmHg 85%
08:00 +19°C° 0 mm 4 mps 729 mmHg 76%
09:00 +20°C° 0 mm 5 mps 730 mmHg 66%
10:00 +23°C° 0 mm 4 mps 729 mmHg 58%
11:00 +26°C° 0 mm 3 mps 729 mmHg 49%
12:00 +29°C° 0 mm 3 mps 729 mmHg 40%
13:00 +30°C° 0 mm 2 mps 728 mmHg 38%
14:00 +30°C° 0 mm 2 mps 728 mmHg 35%
15:00 +31°C° 0 mm 2 mps 727 mmHg 32%
16:00 +30°C° 0 mm 2 mps 727 mmHg 36%
17:00 +28°C° 0 mm 2 mps 727 mmHg 39%
18:00 +26°C° 0 mm 2 mps 727 mmHg 42%
19:00 +25°C° 0 mm 2 mps 727 mmHg 45%
20:00 +24°C° 0 mm 3 mps 727 mmHg 47%
21:00 +21°C° 0 mm 3 mps 728 mmHg 50%
22:00 +20°C° 0 mm 4 mps 728 mmHg 52%
23:00 +19°C° 0 mm 4 mps 728 mmHg 55%

14 May, Friday

Time Temperature Precipitation Wind Pressure Humidity
00:00 +18°C° 0 mm 4 mps 728 mmHg 57%
01:00 +18°C° 0 mm 4 mps 728 mmHg 64%
02:00 +17°C° 0 mm 4 mps 728 mmHg 71%
03:00 +15°C° 0 mm 4 mps 727 mmHg 78%
04:00 +14°C° 0 mm 3 mps 728 mmHg 81%
05:00 +14°C° 0 mm 3 mps 728 mmHg 84%
06:00 +13°C° 0 mm 3 mps 728 mmHg 88%
07:00 +16°C° 0 mm 3 mps 728 mmHg 76%
08:00 +18°C° 0 mm 3 mps 728 mmHg 65%
09:00 +21°C° 0 mm 4 mps 729 mmHg 54%
10:00 +25°C° 0 mm 3 mps 729 mmHg 47%
11:00 +28°C° 0 mm 3 mps 729 mmHg 39%
12:00 +30°C° 0 mm 2 mps 728 mmHg 32%
13:00 +30°C° 0 mm 2 mps 728 mmHg 32%
14:00 +30°C° 0 mm 2 mps 727 mmHg 32%
15:00 +30°C° 0 mm 2 mps 727 mmHg 32%
16:00 +29°C° 0 mm 2 mps 727 mmHg 34%
17:00 +28°C° 0 mm 2 mps 726 mmHg 37%
18:00 +27°C° 0 mm 2 mps 726 mmHg 39%
19:00 +26°C° 0 mm 2 mps 727 mmHg 42%
20:00 +24°C° 0 mm 3 mps 727 mmHg 45%
21:00 +22°C° 0 mm 3 mps 727 mmHg 47%
22:00 +22°C° 0 mm 3 mps 727 mmHg 48%
23:00 +22°C° 0 mm 3 mps 727 mmHg 48%

15 May, Saturday

Time Temperature Precipitation Wind Pressure Humidity
00:00 +21°C° 0 mm 3 mps 727 mmHg 48%
01:00 +21°C° 0 mm 3 mps 727 mmHg 49%
02:00 +20°C° 0 mm 3 mps 727 mmHg 50%
03:00 +20°C° 0 mm 3 mps 726 mmHg 50%
04:00 +19°C° 0 mm 3 mps 726 mmHg 57%
05:00 +19°C° 0 mm 3 mps 726 mmHg 63%
06:00 +18°C° 0 mm 3 mps 726 mmHg 69%
07:00 +19°C° 0 mm 3 mps 727 mmHg 66%
08:00 +20°C° 0 mm 3 mps 728 mmHg 63%
09:00 +21°C° 0 mm 3 mps 728 mmHg 60%
10:00 +24°C° 0 mm 3 mps 728 mmHg 55%
11:00 +25°C° 0 mm 3 mps 728 mmHg 49%
12:00 +27°C° 0 mm 3 mps 728 mmHg 44%
13:00 +28°C° 0 mm 3 mps 728 mmHg 41%
14:00 +29°C° 0 mm 2 mps 727 mmHg 38%
15:00 +30°C° 0 mm 2 mps 727 mmHg 35%
16:00 +29°C° 0 mm 2 mps 726 mmHg 38%
17:00 +27°C° 0 mm 2 mps 726 mmHg 40%
18:00 +26°C° 0 mm 1 mps 726 mmHg 43%
19:00 +25°C° 0 mm 2 mps 727 mmHg 48%
20:00 +23°C° 0 mm 2 mps 727 mmHg 52%
21:00 +21°C° 0 mm 3 mps 727 mmHg 57%
22:00 +21°C° 0 mm 3 mps 727 mmHg 59%
23:00 +20°C° 0 mm 3 mps 727 mmHg 61%
Show more

We Need Your Consent

Meteoprog and our Service Providers may store and access personal data such as cookies, device identifiers or other similar technologies on your device and process such data to personalise content and ads, as well as provide social media features and to analyse the traffic.

  • Store and/or access information on your device

    Cookies, device identifiers or other information can be stored or accessed on your device for the purposes indicated above.

  • Personalised ads and content, ad and content measurement, audience insights, and products development

    Ads and content can be personalised based on a profile. More data can be added to better personalise ads and content. Ad and content performance can be measured. Insights about the audience who saw the ads and content can be derived. Such data can be used to develop or improve user’s experience, systems and software.

By clicking ‘I Agree’ you will allow the use of indicated cookies, device identifiers, web beacons or other similar technologies. Your settings can be changed in the browser on your device.

For certain purposes, legitimate interests may be relied on, rather than consent. You can read more about this in our Privacy and Cookie Policy.